Location: Lecco
(45.8566°N, 9.3977°E)
Time: 12:07:59
(UTC+02:00)

Vanguard 2 Rocket - Pass Details

Date: 20 August 2020
Orbit: 554 x 3326 km, 32.9° (Epoch: 24 September)

Event Time Altitude Azimuth Distance (km) Brightness Sun altitude
Rises 21:56:35 0° 251° (WSW) 3,865 10.6 -15.5°
Reaches altitude 10° 22:01:16 10° 222° (SW) 3,443 9.9 -16.1°
Maximum altitude 22:04:21 12° 201° (SSW) 3,623 9.8 -16.5°
Drops below altitude 10° 22:07:58 10° 182° (S) 4,194 9.9 -17.0°
Enters shadow 22:10:39 - 171° (S) 4,765 10.1 -17.4°
Sets 22:15:38 0° 157° (SSE) 5,966 - -18.1°
